Regional Weather Roundup
Issued by NWS Northern Indiana

Home | Current Version | Previous Version | Graphics & Text | Print | Product List | Glossary On
Versions: 1 2 3 4 5 6 7 8 9 10 11 12 13 14 15 16 17 18 19 20 21 22 23 24 25 26 27 28 29 30 31 32 33 34 35 36 37 38 39 40 41 42 43 44 45 46 47 48 49 50
000
ASUS43 KIWX 231510
RWRIWX

KIWX WEATHER ROUNDUP
NATIONAL WEATHER SERVICE NORTHERN INDIANA
1100 AM EDT WED APR 23 2014

NOTE: "FAIR" INDICATES FEW OR NO CLOUDS BELOW 12,000 FEET WITH NO
SIGNIFICANT WEATHER AND/OR OBSTRUCTIONS TO VISIBILITY.

* THESE STATIONS ARE NOT UNDER NWS QUALITY CONTROL. THEY ALSO MAY NOT
  REPORT WEATHER SUCH AS PRECIPITATION OR FOG.

INZ001>027-231600-
NORTHERN INDIANA

CITY           SKY/WX    TMP DP  RH WIND       PRES   REMARKS
GARY*          MOSUNNY   43  30  61 N9G21     30.20R
VALPARAISO     LGT RAIN  42  29  59 N9        30.17R
MICHIGAN CITY* SUNNY     41  30  65 N9G16     30.17S
LAPORTE*       SUNNY     42  30  62 N7        30.16R
SOUTH BEND     SUNNY     45  28  51 N8        30.15S
ELKHART*       SUNNY     41  27  56 NE7       30.15R
GOSHEN         SUNNY     43  30  60 N9        30.14R
MONTICELLO*    SUNNY     43  29  57 NE7       30.15R
LOGANSPORT*    SUNNY     43  28  56 N6        30.15R
ROCHESTER*     SUNNY     46  32  57 N9        30.14S
WARSAW*        SUNNY     43  30  61 N7        30.13S
ANGOLA*        SUNNY     41  30  65 N9        30.11S
FORT WAYNE     MOSUNNY   45  30  55 N6        30.12R
HUNTINGTON*    FAIR      44  31  62 N5        30.12S
PERU/GRISSOM   SUNNY     44  34  66 VRB6      30.13S
MARION*        SUNNY     42  28  56 N7        30.13S

$$
INZ028>050-231600-
CENTRAL INDIANA

CITY           SKY/WX    TMP DP  RH WIND       PRES   REMARKS
LAFAYETTE      SUNNY     44  29  55 N9        30.15S
KOKOMO*          N/A    N/A N/A N/A MISG        N/A
MUNCIE*        SUNNY     42  31  64 CALM      30.12S
INDIANAPOLIS   SUNNY     44  30  57 N6        30.13R

$$
MIZ043>046-050>051-056>058-064>065-071>073-077>080-231600-
SOUTHWEST LOWER MICHIGAN

CITY           SKY/WX    TMP DP  RH WIND       PRES   REMARKS
BATTLE CREEK   SUNNY     43  27  53 N12       30.13R
BENTON HARBOR  SUNNY     40  31  70 VRB6      30.15F
COLDWATER*     SUNNY     42  29  59 N7        30.12S
HILLSDALE*     SUNNY     44  28  54 N8        30.09S
HOLLAND        SUNNY     46  27  47 NE8       30.15F
GRAND RAPIDS   MOSUNNY   45  24  43 NE7       30.14S
KALAMAZOO      SUNNY     43  27  53 NE6G18    30.14S
STURGIS*       SUNNY     43  30  61 N6        30.12S
THREE RIVERS*  FAIR      44  29  55 N8        30.14R

$$
OHZ001>008-015>018-024>025-231600-
NORTHWEST OHIO

CITY           SKY/WX    TMP DP  RH WIND       PRES   REMARKS
WAUSEON*       FAIR      43  30  61 N10G18    30.11R
DEFIANCE       SUNNY     45  30  55 N7G18     30.11R
FINDLAY        PTSUNNY   44  30  57 N10       30.09R
TOLEDO EXPRESS MOSUNNY   44  29  55 NW15      30.11R
TOLEDO METCALF PTSUNNY   44  30  57 N10       30.11R
LIMA           MOSUNNY   44  32  62 N12       30.10R

$$
&&



USA.gov is the U.S. government's official web portal to all federal, state and local government web resources and services.